Wind_Speed
41 40 39 37 36 36 37 36 36 33 32 29 30 32 32 31 30 29 29 28 28 28 29 30 31 31 32 33 34 34 35 35 37 38 40 41 42 42 43 44 45 46 47 48
41 41 39 39 37 36 36 35 34 34 31 29 31 32 32 31 30 29 29 29 30 30 31 31 32 32 32 33 34 34 35 36 38 39 41 42 43 43 44 45 46 47 49 50
41 40 40 40 36 35 34 33 33 33 29 31 32 31 31 31 31 30 30 30 31 31 32 32 32 32 33 34 35 36 37 38 39 40 41 42 43 43 44 46 48 49 50 52
41 40 41 36 34 33 33 32 32 31 30 31 31 31 31 31 30 30 30 30 31 31 31 31 32 33 34 35 36 37 38 39 40 41 42 42 43 44 46 48 49 51 52 54
42 42 40 36 32 31 32 31 31 31 31 31 32 32 31 31 31 30 30 30 30 30 31 32 33 34 35 35 36 37 38 39 40 41 42 43 44 46 48 50 51 53 54 55
43 42 39 34 32 31 32 31 30 31 31 31 32 32 30 30 31 30 30 30 30 31 32 33 33 34 35 36 36 37 38 39 40 41 42 44 46 48 49 51 52 53 55 56
42 40 38 34 32 31 32 29 29 30 30 30 31 30 30 30 30 30 30 30 31 31 32 33 33 34 35 35 36 37 38 39 40 42 43 45 47 49 50 52 53 55 56 57
41 40 36 33 32 32 31 30 29 29 29 29 30 30 30 30 30 30 29 29 30 30 31 32 33 34 35 35 36 37 39 40 41 43 45 47 48 50 51 53 54 56 57 59
39 37 34 33 32 31 31 31 30 29 29 29 29 30 30 30 30 30 30 30 30 31 32 32 33 34 35 36 37 38 40 41 43 44 46 48 50 51 53 54 56 57 59 61
40 38 36 34 32 32 32 31 30 30 30 30 30 30 30 30 30 30 31 31 31 32 32 33 34 34 36 37 39 40 41 43 44 46 47 49 51 52 54 56 58 60 61 63
39 37 36 35 33 32 31 31 31 31 30 30 30 30 31 31 31 31 31 32 32 33 33 34 35 36 37 39 40 41 43 45 46 48 49 51 52 54 56 57 60 62 64 65
38 36 36 35 34 33 32 32 33 32 31 30 30 30 31 31 31 32 32 33 33 34 35 36 37 38 39 40 42 44 45 47 48 50 51 52 54 56 58 60 62 64 66 67
38 38 37 36 35 35 34 34 34 34 33 32 31 32 32 32 32 33 33 34 35 36 37 38 39 40 41 42 44 45 46 48 49 51 53 54 56 58 60 62 63 65 67 69
38 38 37 36 36 35 35 35 35 35 34 33 33 33 33 34 34 34 35 36 37 38 39 39 40 41 42 44 45 46 48 50 51 53 55 57 59 61 63 64 66 67 69 70
38 38 37 36 36 36 35 35 35 35 35 34 34 34 34 35 35 36 36 37 38 39 40 40 41 43 44 45 47 48 50 52 54 56 58 60 62 64 66 67 68 69 70 71
39 38 37 37 36 36 36 35 35 35 35 35 35 35 35 35 36 37 38 38 39 40 40 42 43 44 46 47 49 50 52 54 57 59 60 62 64 66 68 69 70 71 72 72
38 37 36 36 36 36 35 35 35 35 35 36 36 36 36 36 37 37 38 39 40 41 41 43 45 46 48 50 51 53 55 57 59 61 63 65 66 68 70 71 72 73 73 74
36 36 36 36 36 36 36 36 35 35 35 36 36 36 36 37 37 38 39 40 41 42 43 45 47 48 50 52 54 56 58 60 61 63 65 67 69 70 71 73 74 74 74 72
36 35 35 35 35 35 35 35 35 35 36 36 36 37 37 37 38 39 40 41 42 44 45 47 49 51 53 55 57 59 60 62 63 65 67 69 70 72 73 74 74 72 70 68
34 34 35 35 35 35 35 35 35 35 35 36 36 36 37 37 38 40 41 43 45 46 47 49 51 53 55 57 59 60 62 64 66 68 69 70 72 73 73 72 70 68 66 65
34 33 34 34 34 34 34 34 34 34 35 35 36 36 37 38 40 42 43 45 46 47 49 51 53 55 57 59 61 63 65 67 69 69 70 71 72 71 70 67 65 64 63 61
31 32 32 32 33 33 33 34 34 34 35 35 36 37 38 40 42 43 45 46 47 49 51 53 55 58 60 61 63 65 67 68 69 70 71 72 71 69 66 63 62 61 60 58
29 30 31 32 32 32 32 33 33 34 35 36 37 39 40 41 43 44 45 47 49 51 53 55 58 60 62 63 65 67 68 69 70 71 71 69 67 64 62 61 60 59 57 55
29 29 30 31 31 32 32 33 33 34 35 37 39 40 41 43 44 46 47 49 51 53 55 58 60 61 63 65 67 68 69 69 69 69 67 65 63 61 60 59 57 55 53 51
27 29 29 30 30 31 32 33 34 35 37 38 40 41 43 44 45 47 49 51 53 55 57 59 60 62 65 67 68 68 68 67 66 65 63 61 60 59 57 56 54 52 50 48
27 28 29 30 31 32 33 34 35 37 38 40 41 42 44 45 47 49 51 53 55 57 58 60 62 64 66 67 67 66 65 63 61 60 59 59 57 56 54 52 51 49 47 45
27 28 29 30 31 32 33 35 36 38 39 40 42 43 45 47 49 51 52 54 55 57 60 62 63 65 65 65 64 62 61 59 58 58 57 56 54 52 51 50 48 47 45 44
Wind_Direction
231 235 237 238 239 242 247 251 256 259 260 262 265 268 269 270 271 271 270 269 269 270 271 271 271 272 273 274 275 276 277 278 279 281 283 285 287 288 290 290 292 293 294 295
232 234 237 238 239 242 246 251 256 259 260 261 262 265 268 269 269 270 270 270 271 272 273 272 272 274 275 276 276 277 278 279 281 283 284 286 287 288 289 290 292 293 294 295
233 235 238 239 241 245 249 252 256 258 260 259 262 265 267 268 270 271 272 272 273 273 273 272 273 274 275 276 277 278 279 280 282 283 285 286 287 288 289 291 292 294 295 296
232 234 238 241 242 246 249 251 255 257 258 260 263 264 267 269 271 272 273 274 274 273 273 273 274 275 276 277 278 279 280 281 282 283 285 286 287 288 290 291 293 295 296 297
230 235 239 240 242 246 250 252 254 256 258 261 264 266 268 270 272 273 274 275 274 274 274 275 276 277 277 278 279 280 281 282 283 284 285 287 288 290 291 293 294 296 297 297
231 235 239 240 242 246 250 251 253 257 260 262 264 267 269 271 272 274 275 274 274 275 276 277 277 278 278 279 280 281 282 283 284 285 287 288 290 291 293 294 295 296 297 298
233 237 240 241 242 246 250 254 255 258 260 262 265 267 269 271 273 274 274 274 276 277 278 279 279 280 280 281 282 283 284 285 286 287 289 291 292 293 294 295 296 297 298 298
233 237 239 242 245 248 251 253 255 258 260 262 265 267 269 271 272 273 274 276 278 279 280 281 281 282 282 283 284 285 286 287 288 290 291 292 293 294 295 296 297 297 298 299
236 239 241 243 246 249 251 253 256 259 261 263 265 267 269 270 272 274 275 277 279 281 282 283 283 284 284 285 286 287 288 290 291 292 293 294 295 296 296 297 297 298 299 300
234 235 239 242 245 248 250 253 257 260 263 265 266 267 269 272 273 274 276 278 281 283 284 284 285 285 285 286 287 289 290 292 293 294 295 295 296 297 297 298 299 299 300 301
233 235 239 241 244 248 251 254 257 260 264 266 267 267 269 272 274 276 277 279 282 283 284 285 286 286 287 288 289 291 292 293 294 295 296 296 297 298 299 299 300 301 302 302
234 235 239 242 244 248 252 255 258 261 264 266 268 269 271 273 276 277 278 281 282 284 285 287 287 288 288 289 291 292 294 295 296 296 297 298 299 299 300 301 301 302 302 303
234 236 239 242 245 249 252 255 259 261 264 267 268 270 272 274 276 278 280 282 284 285 287 287 288 289 290 291 292 294 295 296 297 298 298 299 300 300 301 301 302 303 303 303
236 238 240 243 247 250 253 256 260 263 265 268 270 271 273 276 278 279 281 283 285 287 287 288 289 290 292 293 294 296 297 298 298 299 300 300 301 301 302 303 303 303 304 304
237 239 242 245 248 250 254 257 260 263 266 268 270 272 274 276 279 281 283 284 286 287 288 289 290 292 293 295 296 297 298 299 299 300 301 301 302 302 303 304 304 304 304 304
238 241 244 247 250 253 255 258 261 264 266 268 270 272 274 277 279 281 283 285 286 287 289 290 292 294 295 296 297 298 299 300 300 301 302 303 303 303 304 305 305 305 305 305
239 243 246 250 252 254 256 259 261 263 265 268 270 272 275 278 280 282 284 285 287 288 290 292 294 295 296 297 298 299 300 301 302 302 303 304 304 305 305 305 306 305 305 305
240 244 246 249 251 254 257 259 261 263 266 269 271 273 276 278 280 282 284 286 288 290 291 293 295 296 297 298 299 300 301 302 303 304 304 305 305 306 306 306 306 306 306 305
243 246 248 250 253 255 257 259 261 264 267 269 272 274 276 279 281 283 285 287 289 291 293 294 296 297 298 299 301 302 303 303 304 304 305 305 306 306 306 306 306 306 306 306
243 246 248 252 254 256 258 260 263 265 268 270 273 275 277 279 282 284 286 288 290 292 293 295 297 298 300 301 302 303 304 304 305 305 305 306 306 306 306 306 306 306 306 306
244 246 249 252 255 257 259 261 264 266 269 271 273 275 278 281 283 285 287 289 291 293 295 297 298 300 301 302 303 303 304 305 305 306 306 306 307 307 306 306 306 306 306 306
244 247 250 252 254 257 259 262 264 267 269 272 274 277 280 282 285 287 289 291 293 295 296 298 299 301 302 303 303 304 305 305 306 306 307 307 307 306 306 306 306 306 306 306
246 248 250 253 255 258 261 263 266 269 271 274 277 279 282 284 286 288 290 292 294 296 297 299 300 302 302 303 304 305 305 306 306 307 307 307 307 306 306 306 306 307 307 307
248 250 252 255 257 259 262 265 268 272 274 276 279 281 283 285 287 289 291 293 295 297 299 300 302 303 304 305 305 306 306 306 307 308 308 307 307 306 306 306 307 307 307 306
249 251 253 255 258 261 264 267 271 274 276 278 280 282 285 287 289 291 293 295 297 298 300 302 303 304 305 306 306 306 306 307 308 308 308 308 307 307 307 307 307 307 307 306
252 255 258 260 262 264 267 270 273 275 277 279 281 284 286 288 291 293 295 297 298 300 301 303 304 305 306 306 307 307 307 308 308 308 308 308 308 308 308 308 308 308 307 306
255 258 260 263 265 267 269 271 274 276 279 281 284 286 289 291 293 295 296 298 300 301 303 304 305 306 307 307 307 307 307 307 308 308 309 309 309 309 309 309 309 308 307 306
Height
5674 5678 5683 5687 5690 5692 5694 5697 5699 5702 5703 5705 5703 5702 5702 5703 5703 5703 5704 5703 5703 5703 5702 5702 5701 5700 5700 5699 5698 5696 5695 5693 5692 5689 5687 5684 5681 5678 5675 5671 5667 5663 5659 5655
5665 5669 5672 5676 5680 5683 5686 5689 5691 5692 5695 5697 5695 5694 5694 5694 5695 5695 5695 5695 5695 5695 5694 5693 5693 5692 5691 5690 5688 5687 5685 5684 5681 5679 5676 5674 5670 5667 5664 5660 5656 5652 5647 5643
5657 5661 5663 5667 5673 5676 5679 5681 5683 5684 5688 5687 5686 5686 5686 5686 5686 5687 5687 5687 5686 5686 5685 5684 5683 5683 5681 5680 5679 5677 5675 5673 5671 5669 5666 5663 5659 5656 5652 5648 5644 5640 5635 5630
5648 5652 5653 5664 5666 5668 5670 5673 5674 5676 5678 5678 5678 5678 5678 5678 5678 5678 5678 5678 5677 5677 5676 5675 5674 5673 5672 5670 5669 5667 5665 5663 5660 5657 5655 5651 5648 5645 5641 5637 5632 5627 5622 5617
5638 5641 5646 5653 5658 5660 5662 5664 5666 5667 5669 5669 5669 5669 5670 5670 5670 5670 5670 5669 5668 5668 5667 5666 5665 5664 5662 5661 5659 5657 5655 5652 5649 5646 5643 5640 5637 5633 5629 5624 5619 5614 5609 5603
5630 5633 5638 5648 5651 5652 5654 5656 5659 5659 5660 5660 5660 5661 5663 5661 5661 5661 5661 5660 5659 5659 5658 5657 5655 5654 5652 5650 5648 5646 5644 5641 5638 5635 5632 5629 5625 5620 5616 5611 5606 5601 5595 5589
5621 5626 5631 5637 5641 5643 5647 5650 5650 5650 5651 5652 5652 5653 5654 5653 5652 5652 5652 5651 5651 5650 5648 5647 5645 5644 5642 5640 5638 5636 5633 5630 5627 5624 5620 5617 5612 5608 5603 5598 5593 5587 5581 5575
5613 5617 5626 5630 5632 5636 5639 5640 5641 5642 5643 5644 5644 5644 5644 5644 5644 5643 5643 5642 5641 5640 5639 5637 5636 5634 5632 5630 5628 5625 5622 5619 5616 5612 5608 5604 5599 5595 5589 5584 5578 5572 5566 5560
5608 5615 5618 5621 5624 5627 5628 5631 5632 5633 5635 5635 5636 5635 5636 5635 5635 5635 5634 5633 5632 5631 5629 5628 5626 5624 5622 5619 5617 5614 5611 5608 5604 5600 5596 5591 5586 5581 5575 5569 5563 5557 5550 5544
5599 5604 5608 5612 5614 5617 5619 5622 5623 5625 5626 5627 5627 5627 5627 5627 5626 5626 5625 5624 5623 5621 5620 5618 5616 5614 5611 5609 5606 5603 5599 5596 5592 5587 5583 5578 5572 5567 5561 5554 5547 5541 5533 5526
5590 5596 5599 5602 5606 5609 5611 5613 5614 5616 5617 5617 5618 5618 5618 5618 5617 5616 5616 5614 5613 5611 5610 5608 5605 5603 5600 5597 5594 5591 5587 5583 5579 5574 5569 5564 5558 5552 5546 5539 5531 5524 5516 5508
5583 5589 5591 5595 5597 5600 5602 5603 5605 5606 5607 5608 5609 5609 5609 5608 5608 5607 5606 5605 5603 5601 5599 5597 5594 5592 5589 5586 5582 5579 5574 5570 5565 5560 5555 5549 5543 5538 5530 5523 5515 5506 5498 5490
5574 5578 5581 5584 5587 5590 5592 5594 5596 5597 5598 5599 5599 5599 5599 5599 5598 5597 5596 5594 5593 5591 5588 5586 5583 5580 5577 5573 5570 5565 5561 5556 5551 5546 5540 5534 5528 5521 5515 5508 5499 5490 5481 5472
5565 5569 5572 5576 5578 5581 5583 5585 5586 5587 5588 5589 5590 5589 5589 5589 5588 5587 5586 5584 5582 5579 5577 5574 5571 5568 5565 5561 5557 5552 5547 5542 5537 5531 5525 5518 5512 5504 5497 5490 5483 5474 5464 5454
5556 5560 5564 5566 5569 5571 5573 5575 5576 5577 5578 5579 5579 5579 5579 5578 5578 5576 5575 5573 5570 5568 5565 5562 5559 5556 5552 5548 5543 5538 5533 5528 5522 5516 5509 5502 5495 5487 5479 5471 5463 5455 5446 5436
5547 5551 5554 5557 5560 5562 5564 5565 5567 5568 5568 5569 5569 5569 5568 5568 5567 5565 5563 5561 5559 5556 5553 5550 5547 5543 5538 5534 5529 5524 5519 5513 5506 5500 5493 5485 5477 5469 5461 5452 5443 5435 5426 5416
5538 5542 5545 5548 5550 5552 5554 5556 5557 5557 5558 5558 5559 5558 5558 5557 5555 5554 5552 5549 5547 5544 5541 5538 5534 5529 5525 5520 5515 5510 5504 5497 5490 5483 5475 5467 5459 5450 5442 5433 5424 5415 5406 5396
5529 5533 5535 5538 5540 5542 5544 5545 5546 5547 5548 5548 5548 5548 5547 5546 5544 5542 5540 5538 5535 5532 5529 5525 5520 5516 5511 5506 5500 5494 5488 5481 5474 5466 5458 5449 5441 5432 5423 5413 5404 5394 5385 5376
5520 5523 5526 5529 5531 5532 5534 5535 5536 5537 5537 5537 5537 5536 5536 5534 5533 5531 5528 5526 5523 5519 5516 5511 5507 5502 5496 5491 5485 5478 5472 5464 5457 5448 5440 5431 5422 5413 5403 5393 5384 5374 5365 5356
5511 5514 5516 5519 5521 5523 5524 5525 5526 5526 5527 5527 5526 5525 5524 5523 5521 5519 5516 5513 5510 5506 5502 5498 5493 5487 5482 5476 5469 5462 5455 5447 5439 5430 5421 5413 5403 5394 5384 5374 5364 5355 5346 5338
5502 5505 5507 5509 5511 5513 5514 5515 5516 5516 5516 5516 5515 5514 5513 5511 5509 5507 5504 5501 5497 5493 5488 5483 5478 5472 5466 5460 5453 5445 5437 5429 5421 5412 5403 5394 5384 5374 5365 5355 5346 5337 5329 5320
5493 5495 5498 5500 5501 5503 5504 5505 5505 5506 5505 5505 5504 5503 5501 5500 5497 5494 5491 5487 5483 5479 5474 5469 5463 5457 5450 5443 5436 5428 5420 5411 5402 5393 5384 5374 5365 5355 5346 5337 5329 5321 5312 5304
5484 5486 5488 5490 5492 5493 5494 5495 5495 5495 5494 5494 5493 5491 5489 5487 5484 5481 5478 5474 5469 5464 5459 5454 5447 5441 5434 5426 5418 5410 5401 5392 5383 5374 5365 5355 5346 5337 5329 5321 5313 5305 5297 5289
5475 5477 5479 5481 5482 5483 5484 5484 5484 5484 5483 5482 5481 5479 5477 5474 5471 5468 5464 5460 5455 5450 5444 5438 5431 5424 5417 5409 5401 5392 5383 5374 5365 5355 5346 5337 5328 5320 5312 5304 5297 5289 5282 5274
5466 5468 5470 5471 5472 5473 5474 5474 5473 5473 5472 5471 5469 5467 5464 5461 5458 5454 5450 5445 5440 5435 5429 5422 5415 5407 5399 5391 5383 5374 5365 5356 5346 5337 5329 5320 5311 5303 5296 5288 5281 5274 5267 5260
5458 5459 5460 5461 5462 5463 5463 5463 5463 5462 5460 5459 5457 5454 5451 5448 5444 5440 5436 5430 5425 5419 5412 5406 5398 5390 5382 5373 5365 5356 5347 5338 5330 5321 5312 5304 5295 5288 5280 5273 5266 5259 5252 5246
5449 5450 5451 5452 5452 5452 5452 5452 5451 5450 5448 5446 5444 5441 5438 5434 5430 5426 5421 5415 5409 5403 5396 5389 5381 5373 5364 5356 5347 5339 5330 5322 5314 5305 5297 5289 5281 5273 5266 5259 5252 5245 5239 5233